Regional Weather Roundup
Issued by NWS

Home | Current Version | Previous Version | Text Only | Print | Product List | Glossary On
Versions: 1 2 3 4 5 6 7 8 9 10 11 12 13 14 15 16 17 18 19 20 21 22 23 24 25 26 27 28 29 30 31 32 33 34 35 36 37 38 39 40 41 42 43 44 45 46 47 48 49 50
000
ASUS44 KBMX 201210
RWRAL

ALABAMA REGIONAL WEATHER ROUNDUP
NATIONAL WEATHER SERVICE BIRMINGHAM AL
700 AM CDT SAT SEP 20 2014

NOTE: "FAIR" INDICATES FEW OR NO CLOUDS BELOW 12,000 FEET
WITH NO SIGNIFICANT WEATHER AND/OR OBSTRUCTIONS TO VISIBILITY.

THE REMARK "TC" DENOTES TEMPERATURE IN DEGREES CELSIUS.

ALZ001>011-014-016>018-020-201300-
NORTH ALABAMA

CITY           SKY/WX    TMP DP  RH WIND       PRES   REMARKS
MUSCLE SHOALS  CLEAR     67  63  87 E3        30.13R
6HR MIN TEMP:  66; 6HR MAX TEMP:  72;

HUNTSVILLE     CLEAR     69  63  81 SE9       30.13R
6HR MIN TEMP:  69; 6HR MAX TEMP:  72;

DECATUR        CLEAR     67  63  87 E3        30.13R
6HR MIN TEMP:  67; 6HR MAX TEMP:  71;

HALEYVILLE     FAIR      66  65  97 VRB3      30.15R
6HR MIN TEMP:  66; 6HR MAX TEMP:  71;

GADSDEN        CLEAR     64  61  88 NE6       30.13R
6HR MIN TEMP:  64; 6HR MAX TEMP:  66;

$$

ALZ012-013-022-023-030>036-040>044-201300-
WEST CENTRAL ALABAMA

CITY           SKY/WX    TMP DP  RH WIND       PRES   REMARKS
TUSCALOOSA     CLEAR     70  65  84 NE7       30.08R
6HR MIN TEMP:  70; 6HR MAX TEMP:  75;

$$

ALZ015-024>027-033>036-040>044-201300-
CENTRAL ALABAMA

CITY           SKY/WX    TMP DP  RH WIND       PRES   REMARKS
BIRMINGHAM     CLEAR     67  64  90 NE3       30.12R
6HR MIN TEMP:  67; 6HR MAX TEMP:  73;

MONTGOMERY     PTCLDY    69  65  86 E8        30.07R
6HR MIN TEMP:  69; 6HR MAX TEMP:  73;

SHELBY CO ARPT CLEAR     66  65  96 CALM      30.10R
6HR MIN TEMP:  66; 6HR MAX TEMP:  71;

MAXWELL AFB    CLEAR     69  67  93 NE6       30.07R
6HR MIN TEMP:  68; 6HR MAX TEMP:  73;

GREENVILLE     CLOUDY    69  66  90 E9        30.05R
6HR MIN TEMP:  68; 6HR MAX TEMP:  69;

$$

ALZ019-021-028-029-037-038-045>048-201300-
EAST CENTRAL ALABAMA

CITY           SKY/WX    TMP DP  RH WIND       PRES   REMARKS
ANNISTON       CLEAR     67  64  90 E5        30.12R
6HR MIN TEMP:  67; 6HR MAX TEMP:  70;

ALEXANDER CITY CLOUDY    69  66  90 NE6       30.10R
6HR MIN TEMP:  69; 6HR MAX TEMP:  71;

AUBURN         MOCLDY    64  61  88 E10       30.12R
6HR MIN TEMP:  64; 6HR MAX TEMP:  68;

$$

ALZ051>064-201300-
SOUTHWEST ALABAMA

CITY           SKY/WX    TMP DP  RH WIND       PRES   REMARKS
MOBILE         PTCLDY    68  67  96 NE7       30.00R
6HR MIN TEMP:  68; 6HR MAX TEMP:  72;

BROOKLEY FIELD CLEAR     74  69  85 NE12      30.00R
6HR MIN TEMP:  74; 6HR MAX TEMP:  77;

EVERGREEN      PTCLDY    68  65  90 NE3       30.03R FOG
6HR MIN TEMP:  67; 6HR MAX TEMP:  70;

$$

ALZ049-050-065>069-201300-
SOUTHEAST ALABAMA

CITY           SKY/WX    TMP DP  RH WIND       PRES   REMARKS
DOTHAN         CLOUDY    70  67  90 NE7       30.07R
6HR MIN TEMP:  68; 6HR MAX TEMP:  70;

OZARK          CLOUDY    69  67  92 NE8       30.03S
6HR MIN TEMP:  67; 6HR MAX TEMP:  69;

TROY           CLOUDY    69  66  90 E9        30.06R
6HR MIN TEMP:  67; 6HR MAX TEMP:  69;

EUFAULA        CLOUDY    71  66  84 NE6       30.06R
6HR MIN TEMP:  70; 6HR MAX TEMP:  71;

$$


USA.gov is the U.S. government's official web portal to all federal, state and local government web resources and services.